| time (UTC) | temp F | wind direction | speed MPH | gust MPH | rain 1hr in | rain 24hr in | rain mn in | humidity % | barometer mb |
| 20260902070520 | 76 | 0.0 | 0.0 | 0.00 | 0.00 | 0.00 | 74 | 1019.2 | |
| 20260902065540 | 76 | 128 | 0.0 | 2.0 | 0.00 | 0.00 | 0.00 | 71 | 1019.2 |
| 20260902064520 | 78 | 0.0 | 0.0 | 0.00 | 0.00 | 0.00 | 74 | 1019.0 | |
| 20260902063520 | 81 | 0.0 | 0.0 | 0.00 | 0.00 | 0.00 | 56 | 1019.0 | |
| 20260902062520 | 81 | 0.0 | 0.0 | 0.00 | 0.00 | 0.00 | 52 | 1018.9 | |
| 20260902061544 | 79 | 0.0 | 0.0 | 0.00 | 0.00 | 0.00 | 54 | 1018.8 | |
| 20260902060552 | 77 | 0.0 | 0.0 | 0.00 | 0.00 | 0.00 | 63 | 1018.7 | |
| 20260902055520 | 75 | 23 | 1.0 | 2.0 | 0.00 | 0.00 | 0.00 | 65 | 1018.8 |
| 20260902054520 | 74 | 23 | 2.0 | 4.0 | 0.00 | 0.00 | 0.00 | 81 | 1018.9 |
| 20260902053520 | 74 | 358 | 2.0 | 4.0 | 0.00 | 0.00 | 0.00 | 84 | 1018.9 |
| 20260902052520 | 76 | 315 | 1.0 | 2.0 | 0.00 | 0.00 | 0.00 | 80 | 1018.8 |
| 20260902051520 | 77 | 0.0 | 0.0 | 0.00 | 0.00 | 0.00 | 80 | 1018.8 | |
| 20260902050520 | 78 | 0.0 | 0.0 | 0.00 | 0.00 | 0.00 | 71 | 1018.7 | |
| 20260902045520 | 73 | 0.0 | 0.0 | 0.00 | 0.00 | 0.00 | 77 | 1018.5 | |
| 20260902044520 | 71 | 0.0 | 0.0 | 0.00 | 0.00 | 0.00 | 86 | 1018.4 | |
| 20260902043520 | 72 | 0.0 | 0.0 | 0.00 | 0.00 | 0.00 | 99 | 1018.3 | |
| 20260902042520 | 68 | 0.0 | 0.0 | 0.00 | 0.00 | 0.00 | 99 | 1018.3 | |
| 20260902041520 | 66 | 0.0 | 0.0 | 0.00 | 0.00 | 0.00 | 99 | 1018.3 | |
| 20260902040520 | 64 | 0.0 | 0.0 | 0.00 | 0.00 | 0.00 | 99 | 1018.3 | |
| 20260902035532 | 62 | 0.0 | 0.0 | 0.00 | 0.00 | 0.00 | 99 | 1018.2 | |
| 20260902034540 | 62 | 0.0 | 0.0 | 0.00 | 0.00 | 0.00 | 99 | 1018.2 | |
| 20260902033520 | 62 | 0.0 | 0.0 | 0.00 | 0.00 | 0.00 | 99 | 1018.1 | |
| 20260902032520 | 62 | 0.0 | 0.0 | 0.00 | 0.00 | 0.00 | 99 | 1018.0 | |
| 20260902031544 | 63 | 0.0 | 0.0 | 0.00 | 0.00 | 0.00 | 99 | 1018.0 | |
| 20260902030520 | 63 | 0.0 | 0.0 | 0.00 | 0.00 | 0.00 | 99 | 1017.9 | |
| 20260902025520 | 63 | 0.0 | 0.0 | 0.00 | 0.00 | 0.00 | 99 | 1017.9 | |
| 20260902024520 | 64 | 0.0 | 0.0 | 0.00 | 0.00 | 0.00 | 99 | 1017.9 | |
| 20260902023540 | 65 | 0.0 | 0.0 | 0.00 | 0.00 | 0.00 | 99 | 1017.9 | |
| 20260902022520 | 66 | 0.0 | 0.0 | 0.00 | 0.00 | 0.00 | 99 | 1017.8 | |
| 20260902021520 | 66 | 0.0 | 0.0 | 0.00 | 0.00 | 0.00 | 99 | 1017.8 | |
| 20260902020520 | 67 | 0.0 | 0.0 | 0.00 | 0.00 | 0.00 | 99 | 1017.8 | |
| 20260902015520 | 67 | 270 | 0.0 | 2.0 | 0.00 | 0.00 | 0.00 | 99 | 1017.9 |
| 20260902014520 | 66 | 0.0 | 0.0 | 0.00 | 0.00 | 0.00 | 99 | 1018.0 | |
| 20260902013520 | 65 | 0.0 | 0.0 | 0.00 | 0.00 | 0.00 | 99 | 1017.9 | |
| 20260902012520 | 65 | 0.0 | 0.0 | 0.00 | 0.00 | 0.00 | 99 | 1017.9 | |
| 20260902011520 | 65 | 0.0 | 0.0 | 0.00 | 0.00 | 0.00 | 99 | 1018.0 | |
| 20260902010520 | 65 | 0.0 | 0.0 | 0.00 | 0.00 | 0.00 | 99 | 1017.9 | |
| 20260902005520 | 65 | 0.0 | 0.0 | 0.00 | 0.00 | 0.00 | 98 | 1018.0 | |
| 20260902004520 | 66 | 0.0 | 0.0 | 0.00 | 0.00 | 0.00 | 98 | 1017.9 | |
| 20260902003520 | 66 | 0.0 | 0.0 | 0.00 | 0.00 | 0.00 | 98 | 1017.8 | |
| 20260902002520 | 67 | 0.0 | 0.0 | 0.00 | 0.00 | 0.00 | 98 | 1017.7 | |
| 20260902001520 | 67 | 0.0 | 0.0 | 0.00 | 0.00 | 0.00 | 97 | 1017.7 | |
| 20260902000520 | 67 | 0.0 | 0.0 | 0.00 | 0.00 | 0.00 | 97 | 1017.7 | |
| 20260901235532 | 67 | 270 | 0.0 | 2.0 | 0.00 | 0.00 | 0.00 | 97 | 1017.7 |
| 20260901234532 | 68 | 270 | 0.0 | 1.0 | 0.00 | 0.00 | 0.00 | 97 | 1017.8 |
| 20260901233532 | 68 | 270 | 1.0 | 2.0 | 0.00 | 0.00 | 0.00 | 97 | 1017.8 |
| 20260901232520 | 68 | 0.0 | 0.0 | 0.00 | 0.00 | 0.00 | 97 | 1017.8 | |
| 20260901231532 | 67 | 0.0 | 0.0 | 0.00 | 0.00 | 0.00 | 96 | 1017.8 | |
| 20260901230540 | 68 | 0.0 | 0.0 | 0.00 | 0.00 | 0.00 | 96 | 1017.8 | |
| 20260901225520 | 68 | 0.0 | 0.0 | 0.00 | 0.00 | 0.00 | 96 | 1017.8 | |
| 20260901224520 | 68 | 248 | 0.0 | 2.0 | 0.00 | 0.00 | 0.00 | 96 | 1017.9 |
| 20260901223520 | 68 | 248 | 1.0 | 2.0 | 0.00 | 0.00 | 0.00 | 96 | 1017.9 |
| 20260901222520 | 68 | 248 | 1.0 | 4.0 | 0.00 | 0.00 | 0.00 | 95 | 1017.9 |
| 20260901221540 | 68 | 248 | 1.0 | 2.0 | 0.00 | 0.00 | 0.00 | 95 | 1017.9 |
| 20260901220544 | 69 | 248 | 1.0 | 2.0 | 0.00 | 0.00 | 0.00 | 95 | 1017.9 |
| 20260901215520 | 69 | 248 | 2.0 | 2.0 | 0.00 | 0.00 | 0.00 | 94 | 1018.0 |
| 20260901214520 | 69 | 248 | 1.0 | 4.0 | 0.00 | 0.00 | 0.00 | 94 | 1017.9 |
| 20260901213520 | 69 | 248 | 2.0 | 4.0 | 0.00 | 0.00 | 0.00 | 94 | 1017.8 |
| 20260901212532 | 69 | 248 | 1.0 | 2.0 | 0.00 | 0.00 | 0.00 | 94 | 1017.9 |
| 20260901211520 | 69 | 248 | 1.0 | 4.0 | 0.00 | 0.00 | 0.00 | 94 | 1017.8 |
| 20260901210520 | 69 | 248 | 2.0 | 4.0 | 0.00 | 0.00 | 0.00 | 94 | 1017.8 |
| 20260901205520 | 69 | 248 | 1.0 | 2.0 | 0.00 | 0.00 | 0.00 | 94 | 1017.8 |
| 20260901204520 | 69 | 248 | 1.0 | 2.0 | 0.00 | 0.00 | 0.00 | 94 | 1017.8 |
| 20260901203520 | 69 | 248 | 1.0 | 2.0 | 0.00 | 0.00 | 0.00 | 94 | 1017.8 |
| 20260901202532 | 70 | 248 | 1.0 | 2.0 | 0.00 | 0.00 | 0.00 | 94 | 1017.8 |
| 20260901201532 | 70 | 248 | 1.0 | 2.0 | 0.00 | 0.00 | 0.00 | 93 | 1017.8 |
| 20260901200532 | 69 | 230 | 1.0 | 4.0 | 0.00 | 0.00 | 0.00 | 92 | 1017.8 |
| 20260901195520 | 69 | 0.0 | 0.0 | 0.00 | 0.00 | 0.00 | 92 | 1017.8 | |
| 20260901194520 | 69 | 180 | 0.0 | 2.0 | 0.00 | 0.00 | 0.00 | 92 | 1017.9 |
| 20260901193600 | 70 | 234 | 1.0 | 2.0 | 0.00 | 0.00 | 0.00 | 92 | 1017.8 |
| 20260901192520 | 70 | 158 | 2.0 | 4.0 | 0.00 | 0.00 | 0.00 | 93 | 1017.9 |
| 20260901191532 | 70 | 158 | 0.0 | 2.0 | 0.00 | 0.00 | 0.00 | 93 | 1017.9 |
| 20260901190520 | 69 | 180 | 1.0 | 2.0 | 0.00 | 0.00 | 0.00 | 93 | 1017.8 |
| 20260901185520 | 69 | 0.0 | 0.0 | 0.00 | 0.00 | 0.00 | 92 | 1017.8 | |
| 20260901184520 | 69 | 0.0 | 0.0 | 0.00 | 0.00 | 0.00 | 92 | 1017.8 | |
| 20260901183520 | 70 | 180 | 0.0 | 2.0 | 0.00 | 0.00 | 0.00 | 92 | 1017.8 |
| 20260901182520 | 70 | 0.0 | 0.0 | 0.00 | 0.00 | 0.00 | 91 | 1017.8 | |
| 20260901181532 | 70 | 0.0 | 0.0 | 0.00 | 0.00 | 0.00 | 91 | 1017.7 | |
| 20260901180532 | 70 | 0.0 | 0.0 | 0.00 | 0.00 | 0.00 | 90 | 1017.6 | |
| 20260901175540 | 70 | 0.0 | 0.0 | 0.00 | 0.00 | 0.00 | 90 | 1017.5 | |
| 20260901174520 | 70 | 180 | 0.0 | 2.0 | 0.00 | 0.00 | 0.00 | 89 | 1017.4 |
| 20260901173604 | 70 | 180 | 1.0 | 2.0 | 0.00 | 0.00 | 0.00 | 88 | 1017.2 |
| 20260901172532 | 70 | 180 | 1.0 | 2.0 | 0.00 | 0.00 | 0.00 | 88 | 1017.1 |
| 20260901171540 | 70 | 203 | 1.0 | 2.0 | 0.00 | 0.00 | 0.00 | 89 | 1017.1 |
| 20260901170520 | 71 | 199 | 2.0 | 4.0 | 0.00 | 0.00 | 0.00 | 89 | 1016.9 |
| 20260901165520 | 71 | 135 | 2.0 | 4.0 | 0.00 | 0.00 | 0.00 | 90 | 1016.9 |
| 20260901164544 | 71 | 135 | 1.0 | 2.0 | 0.00 | 0.00 | 0.00 | 89 | 1016.8 |
| 20260901163523 | 71 | 135 | 2.0 | 4.0 | 0.00 | 0.00 | 0.00 | 89 | 1016.8 |
| 20260901162540 | 72 | 133 | 2.0 | 4.0 | 0.00 | 0.00 | 0.00 | 88 | 1016.8 |
| 20260901161544 | 72 | 120 | 3.0 | 7.0 | 0.00 | 0.00 | 0.00 | 87 | 1016.8 |
| 20260901160520 | 72 | 113 | 2.0 | 4.0 | 0.00 | 0.00 | 0.00 | 87 | 1016.8 |
| 20260901155520 | 72 | 118 | 2.0 | 4.0 | 0.00 | 0.00 | 0.00 | 86 | 1016.8 |
| 20260901154532 | 73 | 118 | 2.0 | 4.0 | 0.00 | 0.00 | 0.00 | 85 | 1016.8 |
| 20260901153520 | 73 | 138 | 3.0 | 7.0 | 0.00 | 0.00 | 0.00 | 85 | 1016.8 |
| 20260901152604 | 73 | 127 | 3.0 | 7.0 | 0.00 | 0.00 | 0.00 | 85 | 1016.8 |
| 20260901151520 | 73 | 131 | 4.0 | 7.0 | 0.00 | 0.00 | 0.00 | 83 | 1016.8 |
| 20260901150520 | 74 | 139 | 4.0 | 9.0 | 0.00 | 0.00 | 0.00 | 83 | 1016.7 |
| 20260901145521 | 74 | 137 | 3.0 | 7.0 | 0.00 | 0.00 | 0.00 | 82 | 1016.7 |
| 20260901144520 | 75 | 120 | 3.0 | 7.0 | 0.00 | 0.00 | 0.00 | 82 | 1016.7 |
| 20260901143520 | 75 | 136 | 5.0 | 9.0 | 0.00 | 0.00 | 0.00 | 81 | 1016.7 |
| 20260901142520 | 75 | 149 | 4.0 | 7.0 | 0.00 | 0.00 | 0.00 | 81 | 1016.7 |
| 20260901141545 | 76 | 161 | 2.0 | 7.0 | 0.00 | 0.00 | 0.00 | 79 | 1016.7 |
| 20260901140520 | 75 | 131 | 4.0 | 7.0 | 0.00 | 0.00 | 0.00 | 81 | 1016.7 |
| 20260901135520 | 75 | 134 | 4.0 | 7.0 | 0.00 | 0.00 | 0.00 | 81 | 1016.7 |
| 20260901134540 | 74 | 127 | 4.0 | 9.0 | 0.00 | 0.00 | 0.00 | 82 | 1016.7 |
| 20260901133521 | 74 | 122 | 5.0 | 11.0 | 0.00 | 0.00 | 0.00 | 81 | 1016.8 |
| 20260901132521 | 74 | 128 | 6.0 | 11.0 | 0.00 | 0.00 | 0.00 | 82 | 1016.9 |
| 20260901131540 | 75 | 122 | 5.0 | 9.0 | 0.00 | 0.00 | 0.00 | 80 | 1016.9 |
| 20260901130520 | 76 | 161 | 4.0 | 7.0 | 0.00 | 0.00 | 0.00 | 78 | 1016.9 |
| 20260901125520 | 75 | 119 | 4.0 | 9.0 | 0.00 | 0.00 | 0.00 | 80 | 1016.9 |
| 20260901124520 | 74 | 142 | 4.0 | 7.0 | 0.00 | 0.00 | 0.00 | 80 | 1017.0 |
| 20260901123532 | 74 | 114 | 5.0 | 7.0 | 0.00 | 0.00 | 0.00 | 81 | 1017.0 |
| 20260901122520 | 74 | 113 | 4.0 | 9.0 | 0.00 | 0.00 | 0.00 | 80 | 1017.1 |
| 20260901121520 | 75 | 123 | 4.0 | 9.0 | 0.00 | 0.00 | 0.00 | 80 | 1017.1 |
| 20260901120540 | 75 | 172 | 5.0 | 9.0 | 0.00 | 0.00 | 0.00 | 79 | 1017.2 |
| 20260901115540 | 75 | 133 | 4.0 | 9.0 | 0.00 | 0.00 | 0.00 | 79 | 1017.2 |
| 20260901114520 | 74 | 122 | 5.0 | 9.0 | 0.00 | 0.00 | 0.00 | 80 | 1017.1 |
| 20260901113532 | 74 | 135 | 5.0 | 9.0 | 0.00 | 0.00 | 0.00 | 80 | 1017.3 |
| 20260901112520 | 74 | 121 | 6.0 | 11.0 | 0.00 | 0.00 | 0.00 | 82 | 1017.3 |
| 20260901111520 | 74 | 138 | 5.0 | 9.0 | 0.00 | 0.00 | 0.00 | 82 | 1017.3 |
| 20260901110532 | 74 | 126 | 5.0 | 9.0 | 0.00 | 0.00 | 0.00 | 83 | 1017.4 |
| 20260901105612 | 74 | 152 | 6.0 | 9.0 | 0.00 | 0.00 | 0.00 | 81 | 1017.4 |
| 20260901104532 | 75 | 145 | 4.0 | 9.0 | 0.00 | 0.00 | 0.00 | 79 | 1017.4 |
| 20260901103540 | 74 | 135 | 4.0 | 9.0 | 0.00 | 0.00 | 0.00 | 81 | 1017.6 |
| 20260901102520 | 75 | 155 | 4.0 | 9.0 | 0.00 | 0.00 | 0.00 | 80 | 1017.7 |
| 20260901101520 | 74 | 136 | 5.0 | 11.0 | 0.00 | 0.00 | 0.00 | 82 | 1017.7 |
| 20260901100520 | 75 | 192 | 4.0 | 9.0 | 0.00 | 0.00 | 0.00 | 79 | 1017.7 |
| 20260901095520 | 75 | 168 | 3.0 | 7.0 | 0.00 | 0.00 | 0.00 | 80 | 1017.7 |
| 20260901094520 | 75 | 170 | 4.0 | 7.0 | 0.00 | 0.00 | 0.00 | 80 | 1017.7 |
| 20260901093520 | 75 | 172 | 4.0 | 9.0 | 0.00 | 0.00 | 0.00 | 80 | 1017.7 |
| 20260901092520 | 75 | 133 | 3.0 | 7.0 | 0.00 | 0.00 | 0.00 | 80 | 1017.6 |
| 20260901091520 | 75 | 148 | 3.0 | 7.0 | 0.00 | 0.00 | 0.00 | 81 | 1017.5 |
| 20260901090520 | 74 | 129 | 5.0 | 9.0 | 0.00 | 0.00 | 0.00 | 82 | 1017.5 |
| 20260901085520 | 74 | 158 | 4.0 | 7.0 | 0.00 | 0.00 | 0.00 | 81 | 1017.5 |
| 20260901084520 | 74 | 125 | 4.0 | 7.0 | 0.00 | 0.00 | 0.00 | 81 | 1017.4 |
| 20260901083520 | 74 | 99 | 4.0 | 7.0 | 0.00 | 0.00 | 0.00 | 82 | 1017.4 |
| 20260901082544 | 74 | 119 | 4.0 | 9.0 | 0.00 | 0.00 | 0.00 | 81 | 1017.3 |
| 20260901081520 | 74 | 131 | 5.0 | 9.0 | 0.00 | 0.00 | 0.00 | 82 | 1017.2 |
| 20260901080540 | 74 | 136 | 4.0 | 9.0 | 0.00 | 0.00 | 0.00 | 81 | 1017.3 |
| 20260901075520 | 74 | 136 | 4.0 | 9.0 | 0.00 | 0.00 | 0.00 | 81 | 1017.4 |
| 20260901074540 | 74 | 129 | 5.0 | 9.0 | 0.00 | 0.00 | 0.00 | 81 | 1017.4 |
| 20260901073520 | 74 | 130 | 3.0 | 7.0 | 0.00 | 0.00 | 0.00 | 80 | 1017.4 |
| 20260901072520 | 74 | 115 | 3.0 | 9.0 | 0.00 | 0.00 | 0.00 | 81 | 1017.2 |
| 20260901071520 | 74 | 124 | 4.0 | 9.0 | 0.00 | 0.00 | 0.00 | 82 | 1017.3 |